• In Hungary
  • List of Countries
  • For 7 days
  • Water Temperature
  • Satellite Maps
  • Weather Map
  • News
  • Weather Widgets
  • user-avatar
    Login

    Hourly Weather Kushnikovo

    Today, 22 October, Monday

    Time Temperature Precipitation Wind Pressure Humidity
    00:00 +2°C° 0 mm 2 mps 748 mmHg 89%
    01:00 +2°C° 0 mm 2 mps 748 mmHg 89%
    02:00 +2°C° 0 mm 2 mps 748 mmHg 90%
    03:00 +1°C° 0 mm 3 mps 747 mmHg 90%
    04:00 +1°C° 0 mm 3 mps 747 mmHg 90%
    05:00 +1°C° 0 mm 3 mps 747 mmHg 90%
    06:00 +1°C° 0 mm 3 mps 746 mmHg 88%
    07:00 +1°C° 0 mm 4 mps 746 mmHg 86%
    08:00 +1°C° 0 mm 4 mps 746 mmHg 84%
    09:00 +3°C° 0 mm 4 mps 745 mmHg 78%
    10:00 +5°C° 0 mm 5 mps 745 mmHg 73%
    11:00 +6°C° 0 mm 5 mps 744 mmHg 67%
    12:00 +6°C° 0 mm 5 mps 743 mmHg 66%
    13:00 +7°C° 0 mm 5 mps 743 mmHg 65%
    14:00 +7°C° 0 mm 5 mps 742 mmHg 64%
    15:00 +6°C° 0 mm 5 mps 741 mmHg 67%
    16:00 +6°C° 0 mm 5 mps 741 mmHg 71%
    17:00 +5°C° 0 mm 5 mps 740 mmHg 74%
    18:00 +5°C° 0 mm 5 mps 740 mmHg 76%
    19:00 +5°C° 0 mm 5 mps 739 mmHg 78%
    20:00 +3°C° 0 mm 5 mps 739 mmHg 79%
    21:00 +3°C° 0.3 mm 5 mps 738 mmHg 81%
    22:00 +4°C° 0.3 mm 4 mps 737 mmHg 84%
    23:00 +4°C° 0.3 mm 4 mps 737 mmHg 86%

    Tomorrow, 23 October, Tuesday

    Time Temperature Precipitation Wind Pressure Humidity
    00:00 +4°C° 0.5 mm 4 mps 736 mmHg 87%
    01:00 +4°C° 0.5 mm 4 mps 736 mmHg 88%
    02:00 +4°C° 0.5 mm 4 mps 736 mmHg 89%
    03:00 +4°C° 0.4 mm 3 mps 735 mmHg 89%
    04:00 +4°C° 0.4 mm 3 mps 735 mmHg 89%
    05:00 +4°C° 0.4 mm 3 mps 735 mmHg 88%
    06:00 +4°C° 0 mm 3 mps 735 mmHg 88%
    07:00 +3°C° 0 mm 3 mps 735 mmHg 87%
    08:00 +3°C° 0 mm 3 mps 735 mmHg 87%
    09:00 +4°C° 0 mm 3 mps 734 mmHg 81%
    10:00 +4°C° 0 mm 3 mps 734 mmHg 75%
    11:00 +5°C° 0 mm 3 mps 734 mmHg 70%
    12:00 +5°C° 0 mm 3 mps 734 mmHg 67%
    13:00 +7°C° 0 mm 2 mps 733 mmHg 64%
    14:00 +7°C° 0 mm 2 mps 733 mmHg 61%
    15:00 +6°C° 0 mm 2 mps 732 mmHg 66%
    16:00 +5°C° 0 mm 2 mps 731 mmHg 71%
    17:00 +5°C° 0 mm 1 mps 731 mmHg 76%
    18:00 +4°C° 0 mm 2 mps 730 mmHg 78%
    19:00 +3°C° 0 mm 2 mps 729 mmHg 80%
    20:00 +3°C° 0 mm 2 mps 729 mmHg 81%
    21:00 +3°C° 0 mm 2 mps 728 mmHg 83%
    22:00 +2°C° 0 mm 2 mps 727 mmHg 84%
    23:00 +2°C° 0 mm 2 mps 726 mmHg 86%

    Day after tomorrow, 24 October, Wednesday

    Time Temperature Precipitation Wind Pressure Humidity
    00:00 +2°C° 0 mm 2 mps 726 mmHg 87%
    01:00 +1°C° 0 mm 2 mps 725 mmHg 89%
    02:00 +1°C° 0 mm 2 mps 724 mmHg 90%
    03:00 0°C° 0 mm 3 mps 724 mmHg 91%
    04:00 0°C° 0 mm 3 mps 723 mmHg 92%
    05:00 -1°C° 0 mm 3 mps 722 mmHg 93%
    06:00 0°C° 0 mm 3 mps 722 mmHg 91%
    07:00 0°C° 0 mm 3 mps 721 mmHg 90%
    08:00 0°C° 0 mm 3 mps 721 mmHg 89%
    09:00 0°C° 0 mm 4 mps 721 mmHg 85%
    10:00 +1°C° 0 mm 4 mps 721 mmHg 81%
    11:00 +3°C° 0 mm 4 mps 721 mmHg 77%
    12:00 +4°C° 0.1 mm 4 mps 721 mmHg 76%
    13:00 +4°C° 0.1 mm 4 mps 721 mmHg 75%
    14:00 +4°C° 0.1 mm 4 mps 721 mmHg 73%
    15:00 +4°C° 0.2 mm 4 mps 721 mmHg 76%
    16:00 +3°C° 0.2 mm 4 mps 721 mmHg 79%
    17:00 +3°C° 0.2 mm 4 mps 721 mmHg 81%
    18:00 +3°C° 0.5 mm 4 mps 722 mmHg 83%
    19:00 +1°C° 0.5 mm 4 mps 722 mmHg 84%
    20:00 +1°C° 0.5 mm 4 mps 722 mmHg 86%
    21:00 +1°C° 0.5 mm 4 mps 723 mmHg 87%
    22:00 +1°C° 0.5 mm 4 mps 723 mmHg 88%
    23:00 +1°C° 0.5 mm 4 mps 723 mmHg 89%

    25 October, Thursday

    Time Temperature Precipitation Wind Pressure Humidity
    00:00 +1°C° 0.5 mm 4 mps 723 mmHg 89%
    01:00 +2°C° 0.5 mm 3 mps 723 mmHg 89%
    02:00 +2°C° 0.5 mm 3 mps 724 mmHg 89%
    03:00 +2°C° 0.2 mm 3 mps 724 mmHg 89%
    04:00 +2°C° 0.2 mm 3 mps 724 mmHg 89%
    05:00 +1°C° 0.2 mm 4 mps 724 mmHg 89%
    06:00 +1°C° 0.1 mm 4 mps 724 mmHg 89%
    07:00 +1°C° 0.1 mm 4 mps 724 mmHg 88%
    08:00 0°C° 0.1 mm 4 mps 724 mmHg 88%
    09:00 +1°C° 0 mm 4 mps 724 mmHg 86%
    10:00 +1°C° 0 mm 5 mps 724 mmHg 84%
    11:00 +1°C° 0 mm 5 mps 724 mmHg 82%
    12:00 +1°C° 0 mm 5 mps 724 mmHg 79%
    13:00 +2°C° 0 mm 5 mps 723 mmHg 77%
    14:00 +2°C° 0 mm 6 mps 723 mmHg 75%
    15:00 +1°C° 0 mm 6 mps 723 mmHg 76%
    16:00 +1°C° 0 mm 5 mps 723 mmHg 77%
    17:00 0°C° 0 mm 5 mps 723 mmHg 79%
    18:00 0°C° 0 mm 5 mps 723 mmHg 80%
    19:00 0°C° 0 mm 5 mps 722 mmHg 81%
    20:00 -1°C° 0 mm 5 mps 722 mmHg 82%
    21:00 -1°C° 0 mm 5 mps 722 mmHg 83%
    22:00 -1°C° 0 mm 5 mps 723 mmHg 84%
    23:00 -2°C° 0 mm 5 mps 723 mmHg 84%

    26 October, Friday

    Time Temperature Precipitation Wind Pressure Humidity
    00:00 -2°C° 0 mm 4 mps 723 mmHg 86%
    01:00 -1°C° 0 mm 4 mps 723 mmHg 87%
    02:00 -1°C° 0 mm 4 mps 724 mmHg 88%
    03:00 -1°C° 0 mm 4 mps 724 mmHg 87%
    04:00 -1°C° 0 mm 4 mps 725 mmHg 86%
    05:00 0°C° 0 mm 4 mps 725 mmHg 84%
    06:00 0°C° 0 mm 4 mps 725 mmHg 84%
    07:00 0°C° 0 mm 4 mps 726 mmHg 83%
    08:00 0°C° 0 mm 4 mps 726 mmHg 82%
    09:00 +1°C° 0.1 mm 4 mps 727 mmHg 80%
    10:00 +1°C° 0.1 mm 4 mps 727 mmHg 77%
    11:00 +2°C° 0.1 mm 5 mps 728 mmHg 75%
    12:00 +3°C° 0 mm 4 mps 728 mmHg 75%
    13:00 +3°C° 0 mm 4 mps 728 mmHg 75%
    14:00 +3°C° 0 mm 4 mps 729 mmHg 75%
    15:00 +1°C° 0 mm 4 mps 729 mmHg 77%
    16:00 +2°C° 0 mm 3 mps 730 mmHg 79%
    17:00 +2°C° 0 mm 3 mps 730 mmHg 81%
    18:00 +2°C° 0 mm 3 mps 731 mmHg 82%
    19:00 +2°C° 0 mm 2 mps 731 mmHg 84%
    20:00 +2°C° 0 mm 2 mps 731 mmHg 86%
    21:00 +2°C° 0 mm 2 mps 731 mmHg 88%
    22:00 +2°C° 0 mm 2 mps 731 mmHg 90%
    23:00 +1°C° 0 mm 3 mps 731 mmHg 93%

    27 October, Saturday

    Time Temperature Precipitation Wind Pressure Humidity
    00:00 +1°C° 0 mm 3 mps 731 mmHg 92%
    01:00 +1°C° 0 mm 3 mps 731 mmHg 92%
    02:00 +1°C° 0 mm 3 mps 731 mmHg 92%
    03:00 +1°C° 0.8 mm 4 mps 730 mmHg 91%
    04:00 +1°C° 0.8 mm 4 mps 730 mmHg 90%
    05:00 +2°C° 0.8 mm 5 mps 729 mmHg 89%
    06:00 +3°C° 0.2 mm 5 mps 729 mmHg 88%
    07:00 +3°C° 0.2 mm 5 mps 729 mmHg 87%
    08:00 +4°C° 0.2 mm 6 mps 729 mmHg 85%
    09:00 +4°C° 0.1 mm 6 mps 729 mmHg 83%
    10:00 +5°C° 0.1 mm 6 mps 730 mmHg 82%
    11:00 +6°C° 0.1 mm 5 mps 730 mmHg 80%
    12:00 +6°C° 0 mm 5 mps 731 mmHg 78%
    13:00 +6°C° 0 mm 5 mps 731 mmHg 76%
    14:00 +6°C° 0 mm 5 mps 732 mmHg 74%
    15:00 +6°C° 0 mm 4 mps 732 mmHg 77%
    16:00 +5°C° 0 mm 4 mps 733 mmHg 80%
    17:00 +4°C° 0 mm 3 mps 733 mmHg 83%
    18:00 +4°C° 0 mm 3 mps 733 mmHg 84%
    19:00 +4°C° 0 mm 3 mps 734 mmHg 86%
    20:00 +4°C° 0 mm 3 mps 734 mmHg 88%
    21:00 +4°C° 0 mm 3 mps 734 mmHg 89%
    22:00 +4°C° 0 mm 3 mps 734 mmHg 90%
    23:00 +5°C° 0 mm 2 mps 735 mmHg 91%

    28 October, Sunday

    Time Temperature Precipitation Wind Pressure Humidity
    00:00 +5°C° 0.1 mm 2 mps 734 mmHg 93%
    01:00 +5°C° 0.1 mm 2 mps 734 mmHg 94%
    02:00 +5°C° 0.1 mm 1 mps 734 mmHg 96%
    03:00 +5°C° 0.4 mm 1 mps 734 mmHg 96%
    04:00 +5°C° 0.4 mm 1 mps 734 mmHg 97%
    05:00 +6°C° 0.4 mm 1 mps 734 mmHg 97%
    06:00 +6°C° 0.5 mm 1 mps 734 mmHg 97%
    07:00 +5°C° 0.5 mm 2 mps 733 mmHg 97%
    08:00 +5°C° 0.5 mm 2 mps 733 mmHg 96%
    09:00 +5°C° 0.4 mm 2 mps 733 mmHg 96%
    10:00 +5°C° 0.4 mm 2 mps 734 mmHg 95%
    11:00 +6°C° 0.4 mm 2 mps 734 mmHg 95%
    12:00 +6°C° 0.4 mm 2 mps 734 mmHg 94%
    13:00 +6°C° 0.4 mm 2 mps 734 mmHg 93%
    14:00 +5°C° 0.4 mm 3 mps 735 mmHg 93%
    15:00 +4°C° 0.7 mm 3 mps 735 mmHg 92%
    16:00 +4°C° 0.7 mm 3 mps 735 mmHg 92%
    17:00 +4°C° 0.7 mm 3 mps 736 mmHg 92%
    18:00 +4°C° 0.9 mm 3 mps 736 mmHg 92%
    19:00 +3°C° 0.9 mm 3 mps 736 mmHg 92%
    20:00 +3°C° 0.9 mm 3 mps 737 mmHg 93%
    21:00 +3°C° 0.7 mm 3 mps 737 mmHg 92%
    22:00 +3°C° 0.7 mm 3 mps 738 mmHg 92%
    23:00 +3°C° 0.7 mm 3 mps 738 mmHg 91%
    Show more